{"data":{"norad_id":60936,"epoch":"2026-05-24T19:17:37.270176Z","epoch_age_seconds":89015,"freshness":"FRESH","line1":"1 60936U 24155N   26144.80390359  .00001211  00000+0  14853-4 0  9994","line2":"2 60936  53.1596 326.2786 0000871  56.2370 303.8730 15.69700273100351","mean_motion":15.69700273,"eccentricity":8.71e-5,"inclination_deg":53.1596,"raan_deg":326.2786,"arg_perigee_deg":56.237,"mean_anomaly_deg":303.873,"bstar":1.4853e-5,"rev_number":10035,"period_min":91.737258683652,"perigee_km":359.16771515712,"apogee_km":360.34145587132,"semimajor_km":6737.8915855142,"source":"CELESTRAK","updated_at":"2026-05-25T13:38:19.319858Z"}}